Muscle Shoals, AL

11:19 AM CDT on March 25, 2017 (GMT -0500)
Northwest Alabama Regional

Weather History for KMSL - August, 2013

Change the Weather History Date:

Wednesday, August 21, 2013

  Actual Average Record
Temperature  
Mean Temperature 78 °F 80 °F  
Max Temperature 85 °F 91 °F 104 °F (1980)
Min Temperature 71 °F 69 °F 53 °F (1927)
Degree Days  
Heating Degree Days 0 0  
Month to date heating degree days 0 0  
Since 1 June heating degree days 0 1  
Since 1 July heating degree days 0 0  
Cooling Degree Days 13 15  
Month to date cooling degree days 267 322  
Year to date cooling degree days 1333 1405  
Since 1 June cooling degree days 1093 1161  
Growing Degree Days 28 (Base 50)    
Moisture  
Dew Point 72 °F    
Average Humidity 79    
Maximum Humidity 93    
Minimum Humidity 65    
Precipitation  
Precipitation 0.98 in 0.10 in 1.65 in (1994)
Month to date precipitation 5.70 2.16  
Year to date precipitation 42.89 34.72  
Snow  
Snow 0.00 in - - ()
Month to date snowfall 0.0  
Since 1 June snowfall 0.0  
Since 1 July snowfall 0.0  
Snow Depth 0.00 in    
Sea Level Pressure  
Sea Level Pressure 30.15 in    
Wind  
Wind Speed 3 mph (SE)    
Max Wind Speed 13 mph    
Max Gust Speed 17 mph    
Visibility 10 miles    
Events Rain , Thunderstorm    
T = Trace of Precipitation, MM = Missing Value Source: NWS Daily Summary

Daily Weather History Graph

Daily Weather History Graph

Search for Another Location

Airport or City:

Trip Planner

Search our weather history database for the weather conditions in past years. The results will help you decide how hot, cold, wet, or windy it might be!

Date:

Astronomy

Aug. 21, 2013 Rise Set
Actual Time 6:15 AM CDT 7:30 PM CDT
Civil Twilight 5:49 AM CDT 7:57 PM CDT
Nautical Twilight 5:17 AM CDT 8:28 PM CDT
Astronomical Twilight 4:45 AM CDT 9:01 PM CDT
Moon 7:44 PM CDT (8/21) 6:51 AM CDT (8/21)
Length of Visible Light 14h 07m
Length of Day
13h 15m
Waxing Gibbous, 99% of the Moon is Illuminated
Aug 21
Waxing Gibbous
Aug 28
Last Quarter
Sep 5
New
Sep 12
First Quarter
Sep 19
Full

Hourly Weather History & Observations

Time (CDT) Temp. Heat Index Dew Point Humidity Pressure Visibility Wind Dir Wind Speed Gust Speed Precip Events Conditions
12:53 AM 73.9 °F - 71.1 °F 91% 30.10 in 10.0 mi Calm Calm - N/A   Partly Cloudy
1:53 AM 73.0 °F - 70.0 °F 90% 30.09 in 10.0 mi East 3.5 mph - 0.01 in   Clear
2:53 AM 73.0 °F - 70.0 °F 90% 30.09 in 10.0 mi Calm Calm - N/A   Scattered Clouds
3:53 AM 73.0 °F - 71.1 °F 93% 30.10 in 10.0 mi ENE 3.5 mph - N/A   Overcast
4:53 AM 73.0 °F - 71.1 °F 93% 30.11 in 10.0 mi Calm Calm - N/A   Partly Cloudy
5:53 AM 72.0 °F - 70.0 °F 93% 30.13 in 10.0 mi ESE 3.5 mph - N/A   Scattered Clouds
6:53 AM 73.0 °F - 71.1 °F 93% 30.15 in 10.0 mi Calm Calm - N/A   Mostly Cloudy
7:53 AM 75.0 °F - 72.0 °F 90% 30.17 in 10.0 mi SE 4.6 mph - N/A   Mostly Cloudy
8:22 AM 77.0 °F - 73.4 °F 89% 30.19 in 10.0 mi SSE 4.6 mph - N/A   Mostly Cloudy
8:31 AM 77.0 °F - 73.4 °F 89% 30.19 in 10.0 mi South 4.6 mph - 0.00 in Rain Light Rain
8:53 AM 78.1 °F - 73.9 °F 87% 30.17 in 10.0 mi South 3.5 mph - 0.00 in   Overcast
9:22 AM 78.8 °F - 73.4 °F 83% 30.20 in 10.0 mi SSE 4.6 mph - N/A   Overcast
9:53 AM 80.1 °F 84.5 °F 73.9 °F 81% 30.18 in 10.0 mi SSE 4.6 mph - 0.00 in   Mostly Cloudy
10:25 AM 82.4 °F 88.2 °F 73.4 °F 74% 30.19 in 10.0 mi SSE 5.8 mph - N/A Thunderstorm Mostly Cloudy
10:37 AM 84.2 °F 90.9 °F 73.4 °F 70% 30.19 in 10.0 mi South 5.8 mph - N/A Thunderstorm Thunderstorm
10:44 AM 84.2 °F 90.9 °F 73.4 °F 70% 30.18 in 10.0 mi South 5.8 mph - N/A Thunderstorm Thunderstorm
10:53 AM 84.0 °F 91.2 °F 73.9 °F 72% 30.17 in 10.0 mi SSE 6.9 mph - N/A Thunderstorm Mostly Cloudy
11:04 AM 82.4 °F 88.2 °F 73.4 °F 74% 30.19 in 10.0 mi WSW 3.5 mph - N/A Thunderstorm Mostly Cloudy
11:16 AM 82.4 °F 88.2 °F 73.4 °F 74% 30.18 in 10.0 mi Calm Calm - N/A Thunderstorm Overcast
11:30 AM 78.8 °F - 71.6 °F 78% 30.19 in 10.0 mi NW 11.5 mph 17.3 mph N/A Thunderstorm Thunderstorm
11:51 AM 73.4 °F - 71.6 °F 94% 30.19 in 10.0 mi West 4.6 mph - 0.16 in Rain Heavy Rain
11:53 AM 75.0 °F - 71.1 °F 87% 30.18 in 10.0 mi West 6.9 mph - 0.21 in Rain Heavy Rain
12:01 PM 75.2 °F - 71.6 °F 89% 30.19 in 10.0 mi Variable 6.9 mph 17.3 mph 0.52 in Rain , Thunderstorm Heavy Thunderstorms and Rain
12:25 PM 75.2 °F - 71.6 °F 89% 30.21 in 10.0 mi Variable 5.8 mph - 0.75 in Thunderstorm Thunderstorm
12:53 PM 73.9 °F - 70.0 °F 87% 30.19 in 10.0 mi Calm Calm - 0.77 in Rain , Thunderstorm Light Rain
1:28 PM 73.4 °F - 71.6 °F 94% 30.18 in 10.0 mi Calm Calm - 0.00 in   Mostly Cloudy
1:53 PM 75.9 °F - 72.0 °F 87% 30.16 in 10.0 mi SE 3.5 mph - 0.00 in   Mostly Cloudy
2:53 PM 82.9 °F 88.0 °F 72.0 °F 69% 30.13 in 10.0 mi East 3.5 mph - N/A   Clear
3:53 PM 82.9 °F 88.0 °F 72.0 °F 69% 30.11 in 10.0 mi Calm Calm - N/A   Clear
4:53 PM 82.9 °F 88.8 °F 73.0 °F 72% 30.10 in 10.0 mi East 3.5 mph - N/A   Partly Cloudy
5:53 PM 84.0 °F 89.6 °F 72.0 °F 67% 30.09 in 10.0 mi East 3.5 mph - N/A   Clear
6:53 PM 82.0 °F 86.3 °F 71.1 °F 69% 30.10 in 10.0 mi East 4.6 mph - N/A   Partly Cloudy
7:53 PM 78.1 °F - 70.0 °F 76% 30.11 in 10.0 mi SSE 6.9 mph - N/A   Mostly Cloudy
8:53 PM 73.9 °F - 70.0 °F 87% 30.12 in 10.0 mi Calm Calm - N/A   Clear
9:53 PM 73.9 °F - 69.1 °F 85% 30.14 in 10.0 mi SSE 4.6 mph - N/A   Clear
10:53 PM 73.0 °F - 69.1 °F 87% 30.14 in 10.0 mi Calm Calm - N/A   Clear
11:53 PM 72.0 °F - 69.1 °F 91% 30.14 in 10.0 mi ENE 3.5 mph - N/A   Clear